sat.trackr.live / text

‹ back to catalog

STARLINK-31784

NORAD 59618 · 2024-080T

PAYLOAD ACTIVE UNKNOWN

§ Identity

Operator
Country
US
Launch date
2024-04-28
Launch site
AFETR
Launch vehicle
Mass (kg)
RCS (m²)

Purposes: comms

External: N2YO · Heavens-Above · Gunter

§ Orbital elements

Epoch: 2026-05-24T23:02:57.327072Z

Period
94.27 min
Inclination
43.0021°
Eccentricity
0.0000658
Mean motion
15.27581332 rev/d
Perigee alt
482.6 km
Apogee alt
483.5 km
Semi-major
6,861.2 km
B*
3.7091e-5
RAAN
330.9413°
Arg perigee
288.0715°
Mean anomaly
72.0065°
Rev number
11,615

§ Raw data

STARLINK-317841 59618U 24080T   26144.96038573  .00000759  00000+0  37091-4 0  99952 59618  43.0021 330.9413 0000658 288.0715  72.0065 15.27581332116155

JSON: /api/v1/satellites/59618 · /tle

For live sub-satellite position, see the globe view (requires WebGL).

§ Visibility from observer

Set your observer location to see the next 7 days of passes ≥ 10°. The values pass through the URL so the page stays shareable.

No JS? Fill the form by hand. The geolocation button needs JavaScript.